FW7166 Weather Reports


Display with metric or nautical units.
time (UTC)temp
F
wind
direction
speed
MPH
gust
MPH
rain 1hr
in
rain 24hr
in
rain mn
in
humidity
%
barometer
mb
20260506043851 33 336 0.0 12.0 0.00 0.00 0.00 71 1015.0
20260506042835 32 336 0.0 12.0 0.00 0.00 0.00 73 1014.9
20260506042335 31 336 0.0 12.0 0.00 0.00 0.00 75 1014.9
20260506041319 30 336 0.0 12.0 0.00 0.00 0.00 76 1015.0
20260506040303 30 336 0.0 12.0 0.00 0.00 0.00 78 1015.1
20260506035803 30 336 0.0 12.0 0.00 0.00 0.00 79 1015.1
20260506034747 29 336 0.0 12.0 0.00 0.00 0.00 80 1015.1
20260506034247 29 336 0.0 12.0 0.00 0.00 0.00 80 1015.1
20260506033746 29 336 0.0 12.0 0.00 0.00 0.00 80 1015.3
20260506033246 29 336 0.0 12.0 0.00 0.00 0.00 80 1015.4
20260506032746 29 336 0.0 12.0 0.00 0.00 0.00 80 1015.2
20260506032246 29 336 0.0 12.0 0.00 0.00 0.00 80 1015.3
20260506031231 29 336 0.0 12.0 0.00 0.00 0.00 80 1015.2
20260506030731 29 336 0.0 12.0 0.00 0.00 0.00 79 1015.4
20260506030230 29 336 0.0 12.0 0.00 0.00 0.00 79 1015.3
20260506025729 29 336 0.0 12.0 0.00 0.00 0.00 78 1015.3
20260506025229 29 336 0.0 12.0 0.00 0.00 0.00 78 1015.2
20260506024729 29 336 0.0 12.0 0.00 0.00 0.00 77 1015.4
20260506023158 30 336 0.0 12.0 0.00 0.00 0.00 78 1015.3
20260506022658 30 336 0.0 12.0 0.00 0.00 0.00 78 1015.4
20260506022158 30 336 0.0 12.0 0.00 0.00 0.00 78 1015.4
20260506021141 30 336 0.0 12.0 0.00 0.00 0.00 78 1015.4
20260506020641 30 336 0.0 12.0 0.00 0.00 0.00 78 1015.4
20260506020141 30 336 0.0 12.0 0.00 0.00 0.00 78 1015.5
20260506015640 30 336 0.0 12.0 0.00 0.00 0.00 77 1015.2
20260506015139 30 336 0.0 12.0 0.00 0.00 0.00 76 1015.2
20260506014639 30 336 0.0 12.0 0.00 0.00 0.00 75 1015.2
20260506014138 30 336 0.0 12.0 0.00 0.00 0.00 75 1015.3
20260506013638 30 336 0.0 12.0 0.00 0.00 0.00 74 1014.9
20260506011550 30 336 0.0 12.0 0.00 0.00 0.00 71 1014.9
20260506011049 30 336 0.0 12.0 0.00 0.00 0.00 70 1014.9
20260506010549 31 336 0.0 12.0 0.00 0.00 0.00 69 1014.9
20260506010049 31 336 0.0 12.0 0.00 0.00 0.00 69 1014.8
20260506005548 31 336 0.0 12.0 0.00 0.00 0.00 69 1015.1
20260506005047 32 336 0.0 12.0 0.00 0.00 0.00 69 1015.1
20260506004547 32 336 0.0 12.0 0.00 0.00 0.00 68 1015.2
20260506004046 32 336 0.0 12.0 0.00 0.00 0.00 68 1014.8
20260506003031 33 336 0.0 12.0 0.00 0.00 0.00 68 1014.7
20260506002530 33 336 0.0 12.0 0.00 0.00 0.00 68 1014.9
20260506002029 33 336 0.0 12.0 0.00 0.00 0.00 66 1014.8
20260506001529 34 336 0.0 12.0 0.00 0.00 0.00 65 1015.0
20260506000513 34 336 0.0 12.0 0.00 0.00 0.00 65 1014.8
20260506000013 34 336 0.0 12.0 0.00 0.00 0.00 65 1014.9
20260505234957 34 336 0.0 12.0 0.00 0.00 0.00 64 1014.8
20260505234456 34 336 0.0 12.0 0.00 0.00 0.00 63 1014.8
20260505233441 35 336 0.0 12.0 0.00 0.00 0.00 63 1014.9
20260505232941 35 336 0.0 12.0 0.00 0.00 0.00 63 1014.8
20260505232441 35 336 0.0 12.0 0.00 0.00 0.00 63 1014.7
20260505231425 35 336 0.0 12.0 0.00 0.00 0.00 63 1014.7
20260505230410 36 336 0.0 12.0 0.00 0.00 0.00 64 1014.6
20260505225909 36 336 0.0 12.0 0.00 0.00 0.00 64 1014.5
20260505225409 36 336 0.0 12.0 0.00 0.00 0.00 63 1014.7
20260505224908 37 336 0.0 12.0 0.00 0.00 0.00 62 1014.8
20260505224408 37 336 0.0 12.0 0.00 0.00 0.00 62 1014.8
20260505223908 37 336 0.0 12.0 0.00 0.00 0.00 61 1014.6
20260505222852 38 336 0.0 12.0 0.00 0.00 0.00 60 1014.9
20260505222351 38 222 0.0 12.0 0.00 0.00 0.00 57 1014.6
20260505221851 39 222 0.0 12.0 0.00 0.00 0.00 53 1014.5
20260505221350 39 222 0.0 12.0 0.00 0.00 0.00 53 1014.4
20260505220850 39 222 0.0 12.0 0.00 0.00 0.00 53 1014.4
20260505215833 38 222 0.0 12.0 0.00 0.00 0.00 55 1014.4
20260505215333 39 222 0.0 12.0 0.00 0.00 0.00 56 1014.4
20260505214832 39 222 0.0 12.0 0.00 0.00 0.00 56 1014.2
20260505214332 39 222 0.0 12.0 0.00 0.00 0.00 56 1014.4
20260505213315 40 222 0.0 12.0 0.00 0.00 0.00 55 1014.3
20260505212814 40 222 0.0 12.0 0.00 0.00 0.00 56 1014.3
20260505212314 40 222 0.0 12.0 0.00 0.00 0.00 56 1014.0
20260505211814 40 222 0.0 12.0 0.00 0.00 0.00 55 1014.3
20260505211313 40 222 0.0 12.0 0.00 0.00 0.00 56 1014.6
20260505210257 40 222 0.0 12.0 0.00 0.00 0.00 56 1014.4
20260505205757 41 222 0.0 12.0 0.00 0.00 0.00 56 1014.3
20260505205256 41 222 0.0 12.0 0.00 0.00 0.00 55 1013.9
20260505204241 42 222 0.0 12.0 0.00 0.00 0.00 54 1014.0
20260505203225 42 222 0.0 12.0 0.00 0.00 0.00 53 1013.9
20260505202209 43 222 0.0 12.0 0.00 0.00 0.00 52 1013.9
20260505201709 43 222 0.0 12.0 0.00 0.00 0.00 51 1013.9
20260505201208 44 222 0.0 12.0 0.00 0.00 0.00 51 1013.7
20260505200708 44 222 0.0 12.0 0.00 0.00 0.00 50 1013.8
20260505200208 44 221 0.0 12.0 0.00 0.00 0.00 49 1013.7
20260505195708 45 221 0.0 12.0 0.00 0.00 0.00 48 1013.6
20260505195207 45 222 0.0 12.0 0.00 0.00 0.00 48 1013.7
20260505194707 45 217 0.0 12.0 0.00 0.00 0.00 47 1013.8
20260505194206 46 214 1.0 12.0 0.00 0.00 0.00 46 1013.4
20260505193705 46 212 1.0 12.0 0.00 0.00 0.00 46 1013.7
20260505192133 47 247 0.0 12.0 0.00 0.00 0.00 43 1013.7
20260505191117 48 247 0.0 12.0 0.00 0.00 0.00 42 1013.3
20260505190617 48 247 0.0 12.0 0.00 0.00 0.00 41 1013.3
20260505190117 48 247 0.0 12.0 0.00 0.00 0.00 39 1013.4
20260505185617 49 247 0.0 12.0 0.00 0.00 0.00 39 1013.3
20260505185116 49 247 0.0 12.0 0.00 0.00 0.00 38 1013.0
20260505184616 49 247 0.0 12.0 0.00 0.00 0.00 37 1013.0
20260505184116 50 247 0.0 12.0 0.00 0.00 0.00 36 1013.0
20260505183615 50 247 1.0 12.0 0.00 0.00 0.00 35 1013.3
20260505183115 50 240 0.0 12.0 0.00 0.00 0.00 34 1013.2
20260505182615 50 240 0.0 12.0 0.00 0.00 0.00 34 1012.8
20260505182114 51 245 0.0 12.0 0.00 0.00 0.00 33 1013.1
20260505181059 51 249 0.0 12.0 0.00 0.00 0.00 33 1012.7
20260505180559 51 249 0.0 12.0 0.00 0.00 0.00 33 1013.1
20260505180059 52 246 0.0 12.0 0.00 0.00 0.00 32 1012.8
20260505175043 53 208 0.0 12.0 0.00 0.00 0.00 31 1012.7
20260505174027 53 268 2.0 12.0 0.00 0.00 0.00 30 1012.6
20260505173526 53 223 1.0 12.0 0.00 0.00 0.00 31 1012.7
20260505173025 54 228 1.0 12.0 0.00 0.00 0.00 30 1012.6
20260505172524 54 239 0.0 12.0 0.00 0.00 0.00 31 1012.5
20260505172024 54 237 0.0 12.0 0.00 0.00 0.00 30 1012.5
20260505171009 54 237 1.0 12.0 0.00 0.00 0.00 29 1012.4
20260505170508 54 257 2.0 12.0 0.00 0.00 0.00 29 1012.4
20260505170007 55 232 3.0 12.0 0.00 0.00 0.00 28 1012.4
20260505164952 55 237 2.0 12.0 0.00 0.00 0.00 28 1012.0
20260505164451 55 222 2.0 12.0 0.00 0.00 0.00 28 1012.2
20260505163950 55 255 2.0 12.0 0.00 0.00 0.00 28 1012.5
20260505162418 56 237 2.0 12.0 0.00 0.00 0.00 28 1012.3
20260505161918 56 245 1.0 12.0 0.00 0.00 0.00 27 1012.1
20260505161417 56 236 3.0 12.0 0.00 0.00 0.00 26 1012.2
20260505160917 56 243 2.0 12.0 0.00 0.00 0.00 27 1012.0
20260505160416 56 276 1.0 12.0 0.00 0.00 0.00 27 1012.2
20260505152914 57 215 2.0 12.0 0.00 0.00 0.00 25 1012.0
20260505152414 57 241 2.0 12.0 0.00 0.00 0.00 24 1012.3
20260505151914 57 241 2.0 12.0 0.00 0.00 0.00 23 1012.0
20260505150856 57 236 2.0 12.0 0.00 0.00 0.00 22 1012.3
20260505150357 57 241 3.0 12.0 0.00 0.00 0.00 22 1012.2
20260505140307 58 260 2.0 12.0 0.00 0.00 0.00 23 1011.9
20260505130231 58 200 1.0 11.0 0.00 0.00 0.00 26 1011.8
20260505124715 57 241 2.0 11.0 0.00 0.00 0.00 28 1012.0
20260505124214 57 228 2.0 11.0 0.00 0.00 0.00 26 1011.9
20260505123715 57 269 2.0 11.0 0.00 0.00 0.00 27 1011.8
20260505123214 57 222 1.0 11.0 0.00 0.00 0.00 26 1012.0
20260505122714 57 229 4.0 11.0 0.00 0.00 0.00 23 1012.2
20260505122214 57 259 3.0 11.0 0.00 0.00 0.00 24 1012.1
20260505121713 57 243 2.0 11.0 0.00 0.00 0.00 25 1011.8
20260505121212 57 242 4.0 11.0 0.00 0.00 0.00 22 1012.0
20260505120711 57 239 2.0 11.0 0.00 0.00 0.00 26 1012.0
20260505120211 57 333 1.0 11.0 0.00 0.00 0.00 26 1011.9
20260505115711 56 249 3.0 11.0 0.00 0.00 0.00 25 1012.1
20260505114140 56 302 2.0 11.0 0.00 0.00 0.00 26 1012.0
20260505113639 57 273 2.0 11.0 0.00 0.00 0.00 26 1012.1
20260505113138 56 244 1.0 11.0 0.00 0.00 0.00 26 1012.0
20260505112122 56 256 3.0 11.0 0.00 0.00 0.00 24 1011.7
20260505111106 55 299 2.0 11.0 0.00 0.00 0.00 27 1012.0
20260505100945 54 302 4.0 11.0 0.00 0.00 0.00 27 1012.4
20260505100445 54 260 2.0 11.0 0.00 0.00 0.00 29 1012.0
20260505095944 54 277 1.0 11.0 0.00 0.00 0.00 29 1012.1
20260505095444 54 272 2.0 11.0 0.00 0.00 0.00 28 1012.4
20260505094943 54 247 3.0 11.0 0.00 0.00 0.00 28 1012.3
20260505094442 54 247 3.0 11.0 0.00 0.00 0.00 28 1011.9
20260505093427 53 245 2.0 11.0 0.00 0.00 0.00 29 1012.3
20260505092927 53 229 4.0 11.0 0.00 0.00 0.00 31 1012.5
20260505091911 53 262 2.0 11.0 0.00 0.00 0.00 37 1012.4
20260505091411 53 243 1.0 11.0 0.00 0.00 0.00 35 1012.0
20260505090910 53 294 2.0 11.0 0.00 0.00 0.00 32 1011.7
20260505090410 54 273 1.0 11.0 0.00 0.00 0.00 34 1012.1
20260505085910 53 249 1.0 11.0 0.00 0.00 0.00 41 1011.7
20260505085410 53 262 2.0 11.0 0.00 0.00 0.00 37 1012.3
20260505084910 53 239 2.0 11.0 0.00 0.00 0.00 35 1012.0
20260505083853 53 236 2.0 11.0 0.00 0.00 0.00 40 1011.7
20260505082322 51 269 2.0 11.0 0.00 0.00 0.00 43 1011.9
20260505081822 51 252 2.0 11.0 0.00 0.00 0.00 45 1012.0
20260505080806 51 247 3.0 11.0 0.00 0.00 0.00 45 1011.7
20260505080305 51 249 1.0 11.0 0.00 0.00 0.00 47 1011.9
20260505075804 51 244 2.0 11.0 0.00 0.00 0.00 49 1011.7
20260505074232 50 230 3.0 11.0 0.00 0.00 0.00 50 1011.7
20260505073731 50 273 2.0 11.0 0.00 0.00 0.00 53 1011.9
20260505073231 50 204 1.0 11.0 0.00 0.00 0.00 56 1012.1
20260505072730 49 230 1.0 11.0 0.00 0.00 0.00 57 1011.6
20260505072229 49 225 3.0 11.0 0.00 0.00 0.00 55 1011.7
20260505071729 49 230 2.0 11.0 0.00 0.00 0.00 56 1012.0
20260505071229 49 220 2.0 11.0 0.00 0.00 0.00 58 1011.9
20260505070728 49 235 1.0 11.0 0.00 0.00 0.00 59 1011.5
20260505070228 49 150 2.0 11.0 0.00 0.00 0.00 60 1012.1
20260505065728 49 295 1.0 11.0 0.00 0.00 0.00 59 1011.7
20260505065227 48 284 2.0 11.0 0.00 0.00 0.00 61 1011.8
20260505064726 48 242 2.0 11.0 0.00 0.00 0.00 59 1011.8
20260505064226 48 234 3.0 11.0 0.00 0.00 0.00 62 1011.8
20260505063726 48 247 2.0 11.0 0.00 0.00 0.00 63 1011.7
20260505063225 47 224 3.0 11.0 0.00 0.00 0.00 63 1011.8
20260505062209 47 223 3.0 11.0 0.00 0.00 0.00 68 1011.7
20260505061709 48 297 1.0 11.0 0.00 0.00 0.00 70 1011.8
20260505061209 48 267 2.0 11.0 0.00 0.00 0.00 70 1011.7
20260505060709 47 250 2.0 11.0 0.00 0.00 0.00 71 1011.6
20260505060208 47 254 1.0 11.0 0.00 0.00 0.00 72 1011.7
20260505055708 47 242 1.0 11.0 0.00 0.00 0.00 72 1011.6
20260505055207 47 229 1.0 11.0 0.00 0.00 0.00 73 1011.5
20260505054707 47 257 0.0 11.0 0.00 0.00 0.00 79 1011.6
20260505054206 46 237 2.0 11.0 0.00 0.00 0.00 78 1011.4
20260505053705 46 200 2.0 11.0 0.00 0.00 0.00 80 1011.7
20260505053205 46 226 2.0 11.0 0.00 0.00 0.00 81 1011.5
20260505052704 46 221 1.0 11.0 0.00 0.00 0.00 81 1011.5
20260505052203 46 198 1.0 11.0 0.00 0.00 0.00 82 1011.6
20260505051703 45 199 2.0 11.0 0.00 0.00 0.00 81 1011.6
20260505051202 45 233 1.0 11.0 0.00 0.00 0.00 82 1011.5
20260505050701 45 205 2.0 11.0 0.00 0.00 0.00 82 1011.6
20260505050200 45 204 2.0 11.0 0.00 0.00 0.00 82 1011.1